GW3504 Weather Reports


time (UTC)temp
C
wind
direction
speed
KPH
gust
KPH
rain 1hr
cm
rain 24hr
cm
rain mn
cm
humidity
%
barometer
mb
20260902015024 31 0 0.0 6.4 0.00 0.00 0.00 48 1013.9
20260902014540 31 169 0.0 6.4 0.00 0.00 0.00 48 1013.8
20260902014027 31 169 0.0 6.4 0.00 0.00 0.00 48 1013.7
20260902013524 31 172 0.0 6.4 0.00 0.00 0.00 48 1013.7
20260902013053 31 0 0.0 6.4 0.00 0.00 0.00 47 1013.7
20260902012524 31 0 0.0 3.2 0.00 0.00 0.00 47 1013.6
20260902012024 31 0 0.0 4.8 0.00 0.00 0.00 47 1013.6
20260902011547 31 0 0.0 4.8 0.00 0.00 0.00 46 1013.7
20260902011024 32 0 0.0 4.8 0.00 0.00 0.00 46 1013.7
20260902010525 32 165 0.0 4.8 0.00 0.00 0.00 45 1013.6
20260902010045 32 0 0.0 4.8 0.00 0.00 0.00 45 1013.6
20260902005525 32 168 0.0 1.6 0.00 0.00 0.00 45 1013.6
20260902005024 32 0 0.0 3.2 0.00 0.00 0.00 45 1013.5
20260902004546 32 0 0.0 4.8 0.00 0.00 0.00 44 1013.7
20260902004024 33 168 0.0 6.4 0.00 0.00 0.00 44 1013.6
20260902003524 33 0 0.0 6.4 0.00 0.00 0.00 43 1013.6
20260902003043 33 0 0.0 8.0 0.00 0.00 0.00 43 1013.7
20260902002522 33 0 0.0 8.0 0.00 0.00 0.00 42 1013.6
20260902002025 34 187 0.0 8.0 0.00 0.00 0.00 41 1013.8
20260902001602 34 0 1.6 6.4 0.00 0.00 0.00 40 1013.7
20260902001023 34 176 0.0 8.0 0.00 0.00 0.00 40 1013.8
20260902000523 35 148 1.6 8.0 0.00 0.00 0.00 40 1013.7
20260902000045 35 0 1.6 8.0 0.00 0.00 0.00 39 1013.7
20260901235525 35 165 1.6 12.9 0.00 0.00 0.00 38 1013.8
20260901235027 35 158 0.0 12.9 0.00 0.00 0.00 38 1013.8
20260901234541 35 158 1.6 12.9 0.00 0.00 0.00 38 1013.8
20260901234025 35 174 3.2 12.9 0.00 0.00 0.00 37 1013.9
20260901233525 35 178 3.2 8.0 0.00 0.00 0.00 37 1013.8
20260901233055 35 0 1.6 9.7 0.00 0.00 0.00 37 1013.8
20260901232527 35 155 1.6 11.3 0.00 0.00 0.00 36 1013.8
20260901232027 36 183 6.4 11.3 0.00 0.00 0.00 35 1013.9
20260901231548 36 148 3.2 12.9 0.00 0.00 0.00 35 1013.8
20260901231026 36 178 3.2 12.9 0.00 0.00 0.00 35 1013.9
20260901230526 36 169 3.2 12.9 0.00 0.00 0.00 34 1013.9
20260901230046 36 187 1.6 11.3 0.00 0.00 0.00 34 1013.8
20260901225524 36 143 3.2 11.3 0.00 0.00 0.00 34 1013.9
20260901225024 36 173 4.8 14.5 0.00 0.00 0.00 33 1013.9
20260901224549 36 156 3.2 19.3 0.00 0.00 0.00 33 1013.9
20260901224028 36 206 3.2 24.1 0.00 0.00 0.00 33 1013.9
20260901223527 36 277 8.0 24.1 0.00 0.00 0.00 33 1013.9
20260901223051 36 88 4.8 11.3 0.00 0.00 0.00 33 1013.8
20260901222525 36 163 3.2 22.5 0.00 0.00 0.00 34 1013.9
20260901222023 36 125 1.6 22.5 0.00 0.00 0.00 34 1013.9
20260901221558 37 167 3.2 16.1 0.00 0.00 0.00 34 1013.8
20260901221024 36 0 4.8 17.7 0.00 0.00 0.00 34 1013.8
20260901220528 36 250 3.2 20.9 0.00 0.00 0.00 34 1013.9
20260901220052 36 180 6.4 20.9 0.00 0.00 0.00 34 1013.8
20260901215527 37 169 4.8 25.7 0.00 0.00 0.00 33 1013.8
20260901215026 36 157 3.2 25.7 0.00 0.00 0.00 34 1013.9
20260901214551 36 155 4.8 24.1 0.00 0.00 0.00 34 1013.9
20260901214025 36 159 4.8 19.3 0.00 0.00 0.00 34 1013.9
20260901213525 36 158 3.2 29.0 0.00 0.00 0.00 34 1013.8
20260901213048 37 314 3.2 29.0 0.00 0.00 0.00 33 1014.0
20260901212526 37 175 8.0 29.0 0.00 0.00 0.00 32 1014.0
20260901212025 37 242 4.8 19.3 0.00 0.00 0.00 33 1014.0
20260901211547 37 226 6.4 17.7 0.00 0.00 0.00 32 1014.0
20260901211026 37 173 8.0 17.7 0.00 0.00 0.00 32 1014.1
20260901210527 37 196 4.8 16.1 0.00 0.00 0.00 31 1014.1
20260901210044 37 0 4.8 25.7 0.00 0.00 0.00 31 1014.2
20260901205527 37 274 6.4 25.7 0.00 0.00 0.00 31 1014.3
20260901205029 37 188 9.7 27.4 0.00 0.00 0.00 30 1014.3
20260901204549 37 51 8.0 27.4 0.00 0.00 0.00 30 1014.5
20260901204025 37 15 4.8 17.7 0.00 0.00 0.00 31 1014.5
20260901203526 37 30 4.8 19.3 0.00 0.00 0.00 32 1014.7
20260901203047 37 196 3.2 27.4 0.00 0.00 0.00 33 1014.8
20260901202525 37 173 8.0 27.4 0.00 0.00 0.00 33 1014.9
20260901202026 37 167 8.0 20.9 0.00 0.00 0.00 31 1014.9
20260901201546 37 225 4.8 22.5 0.00 0.00 0.00 31 1015.0
20260901201026 37 163 4.8 22.5 0.00 0.00 0.00 31 1015.0
20260901200524 37 169 3.2 20.9 0.00 0.00 0.00 30 1015.0
20260901200048 37 258 4.8 24.1 0.00 0.00 0.00 30 1015.0
20260901195524 37 202 4.8 24.1 0.00 0.00 0.00 30 1015.1
20260901195024 37 336 6.4 24.1 0.00 0.00 0.00 31 1015.1
20260901194550 37 205 6.4 19.3 0.00 0.00 0.00 31 1015.2
20260901194028 37 301 3.2 24.1 0.00 0.00 0.00 31 1015.2
20260901193524 37 76 8.0 24.1 0.00 0.00 0.00 31 1015.2
20260901193048 37 196 6.4 24.1 0.00 0.00 0.00 30 1015.3
20260901192525 37 105 4.8 24.1 0.00 0.00 0.00 30 1015.3
20260901192023 37 152 6.4 24.1 0.00 0.00 0.00 33 1015.4
20260901191600 37 192 4.8 24.1 0.00 0.00 0.00 34 1015.4
20260901191025 37 92 3.2 16.1 0.00 0.00 0.00 35 1015.4
20260901190528 37 176 4.8 16.1 0.00 0.00 0.00 35 1015.5
20260901190048 37 158 6.4 16.1 0.00 0.00 0.00 37 1015.6
20260901185528 37 293 3.2 17.7 0.00 0.00 0.00 37 1015.5
20260901185027 37 290 3.2 17.7 0.00 0.00 0.00 37 1015.6
20260901184547 37 178 3.2 16.1 0.00 0.00 0.00 36 1015.6
20260901184026 37 308 1.6 16.1 0.00 0.00 0.00 36 1015.6
20260901183527 36 278 6.4 20.9 0.00 0.00 0.00 36 1015.7
20260901183051 36 150 4.8 20.9 0.00 0.00 0.00 36 1015.8
20260901182524 36 165 6.4 20.9 0.00 0.00 0.00 36 1015.8
20260901182027 36 134 4.8 16.1 0.00 0.00 0.00 38 1015.9
20260901181558 36 227 1.6 16.1 0.00 0.00 0.00 38 1016.0
20260901181025 36 259 3.2 11.3 0.00 0.00 0.00 38 1016.1
20260901180524 36 301 3.2 16.1 0.00 0.00 0.00 39 1016.1
20260901180046 36 194 4.8 17.7 0.00 0.00 0.00 40 1016.2
20260901175529 35 221 3.2 19.3 0.00 0.00 0.00 40 1016.3
20260901175027 35 135 3.2 19.3 0.00 0.00 0.00 40 1016.3
20260901174548 36 286 3.2 16.1 0.00 0.00 0.00 38 1016.4
20260901174027 36 0 4.8 16.1 0.00 0.00 0.00 39 1016.4
20260901173528 35 0 3.2 14.5 0.00 0.00 0.00 40 1016.6
20260901173059 35 113 3.2 19.3 0.00 0.00 0.00 40 1016.6
20260901172525 35 275 1.6 19.3 0.00 0.00 0.00 39 1016.6
20260901172030 36 241 1.6 12.9 0.00 0.00 0.00 41 1016.7
20260901171600 35 142 0.0 19.3 0.00 0.00 0.00 40 1016.8
20260901171024 35 280 1.6 19.3 0.00 0.00 0.00 40 1016.8
20260901170527 35 314 3.2 17.7 0.00 0.00 0.00 40 1016.8
20260901170047 35 0 1.6 17.7 0.00 0.00 0.00 40 1016.8
20260901165529 35 144 3.2 12.9 0.00 0.00 0.00 43 1016.8
20260901165024 35 171 1.6 20.9 0.00 0.00 0.00 42 1016.8
20260901164546 34 0 3.2 20.9 0.00 0.00 0.00 42 1016.8
20260901164024 33 0 4.8 20.9 0.00 0.00 0.00 44 1016.8
20260901163531 33 178 6.4 17.7 0.00 0.00 0.00 43 1016.8
20260901163052 33 182 3.2 19.3 0.00 0.00 0.00 44 1016.8
20260901162526 33 341 3.2 19.3 0.00 0.00 0.00 45 1016.9
20260901162030 33 139 3.2 19.3 0.00 0.00 0.00 46 1016.9
20260901161605 33 178 4.8 19.3 0.00 0.00 0.00 46 1016.9
20260901161028 32 42 1.6 20.9 0.00 0.00 0.00 47 1017.0
20260901160531 32 155 3.2 20.9 0.00 0.00 0.00 46 1016.9
20260901160050 32 167 6.4 16.1 0.00 0.00 0.00 47 1017.0
20260901155524 32 0 3.2 19.3 0.00 0.00 0.00 48 1017.1
20260901155027 32 163 8.0 19.3 0.00 0.00 0.00 48 1017.1
20260901154555 32 183 3.2 16.1 0.00 0.00 0.00 48 1017.0
20260901154027 31 0 3.2 16.1 0.00 0.00 0.00 50 1017.1
20260901153527 31 238 1.6 19.3 0.00 0.00 0.00 51 1017.1
20260901153050 31 163 3.2 19.3 0.00 0.00 0.00 53 1017.2
20260901152524 30 169 3.2 16.1 0.00 0.00 0.00 53 1017.2
20260901152028 30 120 3.2 16.1 0.00 0.00 0.00 55 1017.1
20260901151542 30 164 3.2 12.9 0.00 0.00 0.00 54 1017.1
20260901151030 30 169 4.8 16.1 0.00 0.00 0.00 54 1017.1
20260901150527 29 0 4.8 16.1 0.00 0.00 0.00 55 1017.1
20260901150052 29 163 3.2 16.1 0.00 0.00 0.00 57 1017.0
20260901145527 28 171 3.2 14.5 0.00 0.00 0.00 56 1017.1
20260901145025 28 170 3.2 16.1 0.00 0.00 0.00 57 1017.1
20260901144550 28 173 3.2 16.1 0.00 0.00 0.00 58 1017.1
20260901144025 28 200 4.8 17.7 0.00 0.00 0.00 59 1017.0
20260901143525 28 165 4.8 17.7 0.00 0.00 0.00 59 1017.1
20260901143048 27 170 4.8 11.3 0.00 0.00 0.00 60 1017.2
20260901142524 27 140 1.6 14.5 0.00 0.00 0.00 61 1017.2
20260901142027 27 169 4.8 14.5 0.00 0.00 0.00 62 1017.2
20260901141548 27 0 1.6 11.3 0.00 0.00 0.00 62 1017.1
20260901141029 26 160 4.8 12.9 0.00 0.00 0.00 63 1017.1
20260901140524 26 140 4.8 12.9 0.00 0.00 0.00 62 1017.1
20260901140049 26 150 4.8 12.9 0.00 0.00 0.00 63 1017.2
20260901135524 26 0 3.2 9.7 0.00 0.00 0.00 64 1017.4
20260901135025 26 159 0.0 9.7 0.00 0.00 0.00 65 1017.4
20260901134548 25 199 1.6 9.7 0.00 0.00 0.00 65 1017.5
20260901134024 25 162 4.8 11.3 0.00 0.00 0.00 66 1017.4
20260901133524 25 168 1.6 11.3 0.00 0.00 0.00 66 1017.3
20260901133046 25 159 3.2 11.3 0.00 0.00 0.00 66 1017.4
20260901132525 25 153 1.6 11.3 0.00 0.00 0.00 66 1017.3
20260901132024 25 0 0.0 11.3 0.00 0.00 0.00 66 1017.2
20260901131546 25 180 4.8 11.3 0.00 0.00 0.00 66 1017.2
20260901131028 25 189 3.2 9.7 0.00 0.00 0.00 66 1017.2
20260901130527 25 164 1.6 8.0 0.00 0.00 0.00 66 1017.2
20260901130058 25 178 1.6 9.7 0.00 0.00 0.00 67 1017.1
20260901125525 25 0 1.6 9.7 0.00 0.00 0.00 66 1017.1
20260901125025 25 163 3.2 9.7 0.00 0.00 0.00 65 1017.0
20260901124547 25 166 1.6 9.7 0.00 0.00 0.00 65 1017.0
20260901124024 25 0 1.6 8.0 0.00 0.00 0.00 65 1016.8
20260901123526 25 0 1.6 8.0 0.00 0.00 0.00 65 1016.8
20260901123047 25 172 0.0 4.8 0.00 0.00 0.00 64 1016.8
20260901122526 25 0 0.0 6.4 0.00 0.00 0.00 64 1016.7
20260901122025 25 173 1.6 9.7 0.00 0.00 0.00 63 1016.7
20260901121543 25 188 1.6 9.7 0.00 0.00 0.00 63 1016.6
20260901121023 25 0 0.0 6.4 0.00 0.00 0.00 63 1016.6
20260901120523 25 0 0.0 6.4 0.00 0.00 0.00 63 1016.5
20260901120050 25 0 0.0 4.8 0.00 0.00 0.00 63 1016.4
20260901115529 25 0 0.0 4.8 0.00 0.00 0.00 63 1016.4
20260901115024 25 0 0.0 6.4 0.00 0.00 0.00 62 1016.4
20260901114609 25 0 0.0 6.4 0.00 0.00 0.00 62 1016.3
20260901114028 25 0 0.0 6.4 0.00 0.00 0.00 62 1016.3
20260901113528 25 0 0.0 6.4 0.00 0.00 0.00 61 1016.4
20260901113043 25 0 0.0 11.3 0.00 0.00 0.00 61 1016.3
20260901112525 25 0 1.6 11.3 0.00 0.00 0.00 61 1016.3
20260901112024 25 0 1.6 8.0 0.00 0.00 0.00 62 1016.3
20260901111547 25 171 0.0 6.4 0.00 0.00 0.00 61 1016.2
20260901111033 25 0 0.0 6.4 0.00 0.00 0.00 61 1016.2
20260901110526 25 0 0.0 12.9 0.00 0.00 0.00 61 1016.1
20260901110051 25 0 0.0 12.9 0.00 0.00 0.00 61 1016.2
20260901105524 25 0 0.0 6.4 0.00 0.00 0.00 60 1016.2
20260901105027 25 0 0.0 6.4 0.00 0.00 0.00 61 1016.1
20260901104546 25 0 0.0 8.0 0.00 0.00 0.00 60 1016.1
20260901104023 25 185 0.0 9.7 0.00 0.00 0.00 60 1016.1
20260901103523 25 0 1.6 9.7 0.00 0.00 0.00 60 1016.1
20260901103042 25 0 0.0 8.0 0.00 0.00 0.00 60 1016.0
20260901102525 26 0 1.6 8.0 0.00 0.00 0.00 60 1016.0
20260901102023 26 170 1.6 8.0 0.00 0.00 0.00 59 1015.9
20260901101543 26 156 0.0 8.0 0.00 0.00 0.00 59 1015.9
20260901101025 26 0 0.0 8.0 0.00 0.00 0.00 59 1015.9
20260901100531 26 0 1.6 9.7 0.00 0.00 0.00 58 1015.8
20260901100044 26 167 1.6 9.7 0.00 0.00 0.00 58 1015.8
20260901095523 26 0 1.6 9.7 0.00 0.00 0.00 57 1015.8
20260901095023 26 188 1.6 9.7 0.00 0.00 0.00 57 1015.7
20260901094544 26 0 0.0 14.5 0.00 0.00 0.00 57 1015.8
20260901094027 26 0 1.6 14.5 0.00 0.00 0.00 57 1015.8
20260901093522 26 0 3.2 14.5 0.00 0.00 0.00 57 1015.6
20260901093050 26 159 3.2 9.7 0.00 0.00 0.00 58 1015.7
20260901092523 26 194 0.0 11.3 0.00 0.00 0.00 58 1015.5
20260901092031 26 0 1.6 11.3 0.00 0.00 0.00 58 1015.4
20260901091545 26 0 0.0 11.3 0.00 0.00 0.00 58 1015.4
20260901091024 26 0 0.0 9.7 0.00 0.00 0.00 58 1015.4
20260901090526 26 0 0.0 11.3 0.00 0.00 0.00 58 1015.4
20260901090050 26 0 1.6 11.3 0.00 0.00 0.00 58 1015.4
20260901085525 26 288 0.0 8.0 0.00 0.00 0.00 59 1015.3
20260901085023 26 229 0.0 6.4 0.00 0.00 0.00 59 1015.3
20260901084548 26 0 0.0 6.4 0.00 0.00 0.00 59 1015.4
20260901084029 26 0 0.0 6.4 0.00 0.00 0.00 59 1015.4
20260901083525 26 0 0.0 4.8 0.00 0.00 0.00 59 1015.3
20260901083049 26 0 0.0 4.8 0.00 0.00 0.00 59 1015.3
20260901082526 26 0 0.0 9.7 0.00 0.00 0.00 58 1015.1
20260901082028 26 0 0.0 9.7 0.00 0.00 0.00 58 1015.1
20260901081548 26 170 0.0 6.4 0.00 0.00 0.00 57 1015.1
20260901081025 26 0 0.0 3.2 0.00 0.00 0.00 57 1015.1
20260901080523 26 0 0.0 9.7 0.00 0.00 0.00 56 1015.1
20260901080049 27 0 0.0 9.7 0.00 0.00 0.00 55 1015.2
20260901075524 27 0 0.0 6.4 0.00 0.00 0.00 55 1015.2
20260901075027 27 0 0.0 9.7 0.00 0.00 0.00 54 1015.2
20260901074548 27 0 0.0 9.7 0.00 0.00 0.00 54 1015.1
20260901074025 27 129 0.0 9.7 0.00 0.00 0.00 54 1015.2
20260901073523 27 0 1.6 11.3 0.00 0.00 0.00 53 1015.2
20260901073046 27 178 1.6 11.3 0.00 0.00 0.00 53 1015.2
20260901072528 27 136 0.0 4.8 0.00 0.00 0.00 53 1015.1
20260901072023 27 0 0.0 8.0 0.00 0.00 0.00 53 1015.2
20260901071552 27 0 0.0 8.0 0.00 0.00 0.00 53 1015.2
20260901071024 27 0 0.0 9.7 0.00 0.00 0.00 52 1015.2
20260901070525 27 142 0.0 9.7 0.00 0.00 0.00 52 1015.3
20260901065525 27 184 1.6 17.7 0.00 0.00 0.00 52 1015.2
20260901065027 28 253 0.0 14.5 0.00 0.00 0.00 52 1015.3
20260901064546 28 0 0.0 14.5 0.00 0.00 0.00 51 1015.2
20260901064025 28 0 0.0 14.5 0.00 0.00 0.00 51 1015.3
20260901063526 28 181 1.6 12.9 0.00 0.00 0.00 51 1015.3
20260901063050 28 167 3.2 20.9 0.00 0.00 0.00 51 1015.2
20260901062524 27 222 4.8 20.9 0.00 0.00 0.00 51 1015.2
20260901062028 27 184 4.8 14.5 0.00 0.00 0.00 53 1015.3
20260901061551 27 165 3.2 14.5 0.00 0.00 0.00 54 1015.3
20260901061024 27 159 3.2 9.7 0.00 0.00 0.00 54 1015.2
20260901060524 27 160 3.2 9.7 0.00 0.00 0.00 54 1015.4
20260901060044 27 173 3.2 9.7 0.00 0.00 0.00 54 1015.3
20260901055525 27 163 1.6 8.0 0.00 0.00 0.00 55 1015.4
20260901055024 27 186 1.6 8.0 0.00 0.00 0.00 54 1015.4
20260901054549 27 167 0.0 8.0 0.00 0.00 0.00 55 1015.3
20260901054025 27 0 0.0 4.8 0.00 0.00 0.00 55 1015.3
20260901053526 27 0 0.0 6.4 0.00 0.00 0.00 54 1015.3
20260901053053 27 0 0.0 6.4 0.00 0.00 0.00 54 1015.3
20260901052523 27 163 0.0 8.0 0.00 0.00 0.00 54 1015.3
20260901052024 27 0 0.0 8.0 0.00 0.00 0.00 54 1015.3
20260901051544 27 0 0.0 4.8 0.00 0.00 0.00 54 1015.3
20260901051026 27 0 0.0 6.4 0.00 0.00 0.00 54 1015.4
20260901050525 27 0 0.0 6.4 0.00 0.00 0.00 53 1015.4
20260901050053 27 171 0.0 6.4 0.00 0.00 0.00 53 1015.4
20260901045523 27 172 0.0 3.2 0.00 0.00 0.00 53 1015.4
20260901045022 27 0 0.0 3.2 0.00 0.00 0.00 52 1015.4
20260901044556 28 0 0.0 3.2 0.00 0.00 0.00 52 1015.4
20260901044025 28 0 0.0 4.8 0.00 0.00 0.00 51 1015.4
20260901043527 28 0 0.0 4.8 0.00 0.00 0.00 51 1015.4
20260901043048 28 0 0.0 4.8 0.00 0.00 0.00 51 1015.3
20260901042527 28 0 0.0 4.8 0.00 0.00 0.00 50 1015.3
20260901042023 28 0 0.0 3.2 0.00 0.00 0.00 50 1015.2
20260901041544 28 0 0.0 8.0 0.00 0.00 0.00 50 1015.2
20260901041025 28 0 0.0 8.0 0.00 0.00 0.00 49 1015.2
20260901040524 29 0 1.6 6.4 0.00 0.00 0.00 49 1015.2
20260901040053 29 0 0.0 11.3 0.00 0.00 0.00 49 1015.1
20260901035524 29 0 1.6 11.3 0.00 0.00 0.00 48 1015.1
20260901035024 29 144 3.2 11.3 0.00 0.00 0.00 48 1015.1
20260901034549 30 0 1.6 9.7 0.00 0.00 0.00 48 1015.1
20260901034028 30 153 1.6 9.7 0.00 0.00 0.00 48 1015.1
20260901033524 30 176 1.6 9.7 0.00 0.00 0.00 47 1015.0
20260901033100 30 0 1.6 14.5 0.00 0.00 0.00 47 1014.9
20260901032526 30 0 3.2 14.5 0.00 0.00 0.00 48 1014.8
20260901032027 30 157 1.6 11.3 0.00 0.00 0.00 48 1014.8
20260901031545 30 0 3.2 12.9 0.00 0.00 0.00 47 1014.8
20260901031023 30 161 1.6 12.9 0.00 0.00 0.00 47 1014.8
20260901030524 30 177 0.0 12.9 0.00 0.00 0.00 47 1014.7
20260901030101 30 165 1.6 12.9 0.00 0.00 0.00 46 1014.7
20260901025525 30 174 0.0 14.5 0.00 0.00 0.00 46 1014.8
20260901025024 30 139 3.2 14.5 0.00 0.00 0.00 47 1014.8
20260901024551 30 157 0.0 9.7 0.00 0.00 0.00 47 1014.8
20260901024025 30 0 0.0 8.0 0.00 0.00 0.00 47 1014.7
20260901023536 30 162 0.0 8.0 0.00 0.00 0.00 48 1014.6
20260901023049 30 0 1.6 8.0 0.00 0.00 0.00 48 1014.6
20260901022524 31 153 1.6 8.0 0.00 0.00 0.00 48 1014.6
20260901022025 31 164 1.6 9.7 0.00 0.00 0.00 49 1014.5
20260901021558 31 121 1.6 9.7 0.00 0.00 0.00 48 1014.4
20260901021028 31 120 3.2 9.7 0.00 0.00 0.00 49 1014.4
20260901020523 31 164 1.6 12.9 0.00 0.00 0.00 48 1014.3
20260901020045 31 152 1.6 14.5 0.00 0.00 0.00 49 1014.3
20260901015522 31 0 3.2 14.5 0.00 0.00 0.00 49 1014.3